Regional Weather Roundup
Issued by NWS

Home | Current Version | Previous Version | Text Only | Print | Product List | Glossary On
Versions: 1 2 3 4 5 6 7 8 9 10 11 12 13 14 15 16 17 18 19 20 21 22 23 24 25 26 27 28 29 30 31 32 33 34 35 36 37 38 39 40 41 42 43 44 45 46 47 48 49 50
000
ASUS46 KSTO 281215
RWRCA

NORTHERN AND CENTRAL CA REGIONAL WEATHER ROUNDUP
NATIONAL WEATHER SERVICE SACRAMENTO CA
500 AM PDT WED SEP 28 2016

NOTE: FAIR INDICATES FEW OR NO CLOUDS BELOW 12,000 FEET WITH NO
SIGNIFICANT WEATHER AND/OR OBSTRUCTIONS TO VISIBILITY.

CAZ001-003-281300-
NORTHWEST AREA

CITY           SKY/WX    TMP DP  RH WIND       PRES   REMARKS
CRESCENT CITY  CLOUDY    55  54  96 CALM      29.95S FOG
UKIAH          CLEAR     54  45  71 CALM      29.87S
$$

CAZ006-505>513-281300-
BAY AREA

CITY           SKY/WX    TMP DP  RH WIND       PRES   REMARKS
SANTA ROSA     PTCLDY    48  47  96 CALM      29.86R
SAN RAFAEL     N/A       56  MM  MM MISG
NAPA           CLEAR     56  52  86 CALM      29.85S
CONCORD        CLEAR     59  51  75 CALM      29.84R
OAKLAND CITY   N/A       56  MM  MM MISG
OAKLAND        CLEAR     57  54  89 CALM      29.86S
SAN FRAN CITY  N/A       54  MM  97 MISG
SAN FRAN ARPT  PTCLDY    55  52  89 NW8       29.86S
LIVERMORE      CLEAR     62  39  42 CALM      29.84S
HAYWARD        CLEAR     58  51  78 NW3       29.86R
REDWOOD CITY   N/A       56  MM  82 MISG
MOFFETT ARPT   CLEAR     61  54  77 CALM      29.86S
SAN JOSE ARPT  CLEAR     61  56  83 W3        29.86R
$$
CAZ034-037-514>518-281300-
CENTRAL COAST

CITY           SKY/WX    TMP DP  RH WIND       PRES   REMARKS
WATSONVILLE    FOG       53  53 100 CALM      29.91R VSB 1/4
SALINAS        CLOUDY    53  52  96 VRB3      29.90R FOG
MONTEREY       CLEAR     52  50  93 E3        29.90R
SAN LUIS OBISP CLEAR     56  47  71 CALM      29.89R
SANTA MARIA    CLEAR     54  48  80 CALM      29.89S
$$
CAZ015-016-281300-
NORTHERN SACRAMENTO VALLEY

CITY           SKY/WX    TMP DP  RH WIND       PRES   REMARKS
REDDING        CLEAR     63  50  62 CALM      29.85R
RED BLUFF      CLEAR     66  47  50 NW7       29.85R
OROVILLE       CLEAR     64  50  60 CALM      29.84S
$$
CAZ016>018-281300-
SOUTHERN SACRAMENTO VALLEY

CITY           SKY/WX    TMP DP  RH WIND       PRES   REMARKS
AUBURN         CLEAR     72  41  33 E6        29.90R
BEALE AFB      CLEAR     64  42  44 N5        29.81R
LINCOLN        FAIR      61  43  51 CALM      29.82R
MARYSVILLE     CLEAR     59  49  69 N3        29.82S
SAC INTL ARPT  CLEAR     65  46  50 S6        29.81R
MATHER AIRPORT CLEAR     61  43  51 CALM      29.82S
DOWNTOWN SAC   N/A       67  MM  MM MISG
SAC EXEC ARPT  CLEAR     67  47  48 S3        29.82R
VACAVILLE      CLEAR     63  46  54 SW3       29.83R
TRAVIS AFB     CLEAR     63  49  60 SW12      29.80R
$$
CAZ019>021-281300-
SAN JOAQUIN VALLEY

CITY           SKY/WX    TMP DP  RH WIND       PRES   REMARKS
STOCKTON       CLEAR     62  48  60 CALM      29.82R
MODESTO        CLEAR     63  52  67 CALM      29.82R
MERCED         CLEAR     62  44  51 SE3       29.82R
LEMOORE        CLEAR     62  31  31 SW8       29.84S
FRESNO         CLEAR     67  45  45 E3        29.85R
HANFORD        CLEAR     58  53  84 SE3       29.85R HAZE
PORTERVILLE    CLEAR     65  41  41 CALM      29.86R
BAKERSFIELD    PTCLDY    70  38  31 N3        29.86R
$$
CAZ011-012-071-281300-
NORTHERN MOUNTAINS

CITY           SKY/WX    TMP DP  RH WIND       PRES   REMARKS
YREKA          CLEAR     51  38  60 CALM      30.00S
MOUNT SHASTA   CLEAR     52  40  63 NE5       30.03R
ALTURAS        CLEAR     38  27  64 CALM      30.08S
$$
CAZ011-012-071-281300-
SIERRA NEVADA MTNS

CITY           SKY/WX    TMP DP  RH WIND       PRES   REMARKS
BLUE CANYON    CLEAR     65  36  34 CALM      30.14S
TRUCKEE        CLEAR     36  34  93 CALM      30.20R
TAHOE VLY ARPT CLEAR     38  30  73 CALM      30.20S
MAMMOTH LAKES  FAIR      39  25  56 N3        30.28S
$$




USA.gov is the U.S. government's official web portal to all federal, state and local government web resources and services.